Grand Junction, CO

11:08 PM MDT on September 18, 2019 (GMT -0600)
Walker

Weather History for KGJT - April, 2019

Change the Weather History Date:

Friday, April 19, 2019

  Actual Average Record
Temperature  
Mean Temperature 59 °F 53 °F  
Max Temperature 76 °F 66 °F 86 °F (1962)
Min Temperature 42 °F 39 °F 25 °F (2013)
Degree Days  
Heating Degree Days 6 12  
Month to date heating degree days 226 285  
Since 1 July heating degree days 5334 5317  
Cooling Degree Days 0 0  
Month to date cooling degree days 0 0  
Year to date cooling degree days 0 0  
Growing Degree Days 8 (Base 50)    
Moisture  
Dew Point 27 °F    
Average Humidity 36    
Maximum Humidity 57    
Minimum Humidity 14    
Precipitation  
Precipitation 0.00 in 0.03 in 0.49 in (1909)
Month to date precipitation 0.06 0.60  
Year to date precipitation 3.79 2.64  
Snow  
Snow 0.00 in 0.00 in 0.90 in (1941)
Month to date snowfall T 0.8  
Since 1 July snowfall 17.4 18.9  
Snow Depth 0.00 in    
Sea Level Pressure  
Sea Level Pressure 30.02 in    
Wind  
Wind Speed 7 mph (East)    
Max Wind Speed 15 mph    
Max Gust Speed 18 mph    
Visibility 10 miles    
Events      
T = Trace of Precipitation, MM = Missing Value Source: NWS Daily Summary

Daily Weather History Graph

Daily Weather History Graph

Search for Another Location

Airport or City:

Astronomy

Apr. 19, 2019 Rise Set
Actual Time 6:31 AM MDT 7:55 PM MDT
Civil Twilight 6:03 AM MDT 8:23 PM MDT
Nautical Twilight 5:30 AM MDT 8:56 PM MDT
Astronomical Twilight 4:55 AM MDT 9:32 PM MDT
Moon 8:25 PM MDT 7:00 AM MDT
Length of Visible Light 14h 19m
Length of Day
13h 23m
Full, 100% of the Moon is Illuminated
Apr 19
Full
Apr 26
Last Quarter
May 4
New
May 11
First Quarter
May 18
Full

Hourly Weather History & Observations

Time (MDT) Temp. Windchill Dew Point Humidity Pressure Visibility Wind Dir Wind Speed Gust Speed Precip Events Conditions
12:53 AM 48.9 °F - 28.9 °F 46% 30.13 in 10.0 mi ESE 6.9 mph - N/A   Clear
1:53 AM 46.9 °F - 30.0 °F 52% 30.12 in 10.0 mi East 5.8 mph - N/A   Clear
2:53 AM 45.0 °F 40.6 °F 28.9 °F 53% 30.11 in 10.0 mi East 8.1 mph - N/A   Clear
3:53 AM 44.1 °F 38.6 °F 28.9 °F 55% 30.11 in 10.0 mi ESE 10.4 mph - N/A   Clear
4:53 AM 45.0 °F 39.3 °F 28.0 °F 52% 30.11 in 10.0 mi ESE 11.5 mph - N/A   Clear
5:53 AM 43.0 °F 36.8 °F 28.0 °F 56% 30.12 in 10.0 mi ESE 11.5 mph - N/A   Clear
6:53 AM 43.0 °F 40.3 °F 28.0 °F 56% 30.14 in 10.0 mi East 4.6 mph - N/A   Clear
7:53 AM 48.9 °F - 30.0 °F 48% 30.16 in 10.0 mi SSE 9.2 mph - N/A   Clear
8:53 AM 55.0 °F - 30.0 °F 38% 30.16 in 10.0 mi SE 11.5 mph - N/A   Clear
9:53 AM 57.9 °F - 28.9 °F 33% 30.12 in 10.0 mi SSE 4.6 mph - N/A   Clear
10:53 AM 63.0 °F - 30.0 °F 29% 30.12 in 10.0 mi Calm Calm - N/A   Clear
11:53 AM 66.0 °F - 30.9 °F 27% 30.09 in 10.0 mi Calm Calm - N/A   Clear
12:53 PM 70.0 °F - 28.9 °F 22% 30.05 in 10.0 mi South 4.6 mph - N/A   Clear
1:53 PM 71.1 °F - 27.0 °F 19% 30.02 in 10.0 mi Variable 5.8 mph - N/A   Clear
2:53 PM 73.0 °F - 28.9 °F 20% 29.99 in 10.0 mi West 6.9 mph - N/A   Clear
3:53 PM 73.9 °F - 28.0 °F 18% 29.96 in 10.0 mi WNW 9.2 mph - N/A   Clear
4:53 PM 75.0 °F - 27.0 °F 17% 29.92 in 10.0 mi NW 10.4 mph - N/A   Clear
5:53 PM 75.0 °F - 25.0 °F 16% 29.91 in 10.0 mi NW 9.2 mph - N/A   Clear
6:53 PM 73.9 °F - 21.9 °F 14% 29.89 in 10.0 mi WNW 5.8 mph - N/A   Clear
7:53 PM 69.1 °F - 19.9 °F 15% 29.88 in 10.0 mi NNW 3.5 mph - N/A   Clear
8:53 PM 60.1 °F - 23.0 °F 24% 29.89 in 10.0 mi NNE 8.1 mph - N/A   Clear
9:53 PM 59.0 °F - 21.9 °F 24% 29.89 in 10.0 mi Calm Calm - N/A   Clear
10:53 PM 55.0 °F - 25.0 °F 31% 29.89 in 10.0 mi East 6.9 mph - N/A   Clear
11:53 PM 55.0 °F - 25.0 °F 31% 29.87 in 10.0 mi ENE 5.8 mph - N/A   Clear